De Queen, AR

6:57 PM CDT on April 29, 2017 (GMT -0500)
Helms Sevier County

Weather History for KDEQ - September, 2012

Change the Weather History Date:

Tuesday, September 18, 2012

  Actual Average Record
Temperature  
Mean Temperature 65 °F 73 °F  
Max Temperature 80 °F 86 °F 100 °F (2005)
Min Temperature 50 °F 60 °F 40 °F (1981)
Degree Days  
Heating Degree Days 0 0  
Month to date heating degree days 0 0  
Since 1 July heating degree days 0 0  
Cooling Degree Days 0 8  
Month to date cooling degree days 237 203  
Year to date cooling degree days 1989 1795  
Growing Degree Days 16 (Base 50)    
Moisture  
Dew Point 59 °F    
Average Humidity 63    
Maximum Humidity 100    
Minimum Humidity 26    
Precipitation  
Precipitation 0.00 in 0.10 in 1.05 in (1952)
Month to date precipitation 1.03 2.19  
Year to date precipitation 21.81 33.78  
Snow  
Snow 0.00 in - - ()
Month to date snowfall 0.0  
Since 1 July snowfall 0.0  
Since 1 September snowfall 0.0  
Snow Depth 0.00 in    
Sea Level Pressure  
Sea Level Pressure 29.92 in    
Wind  
Wind Speed 1 mph (North)    
Max Wind Speed 8 mph    
Max Gust Speed 20 mph    
Visibility 5 miles    
Events Fog    
T = Trace of Precipitation, MM = Missing Value Source: NWS Daily Summary

Daily Weather History Graph

Daily Weather History Graph

Search for Another Location

Airport or City:

Trip Planner

Search our weather history database for the weather conditions in past years. The results will help you decide how hot, cold, wet, or windy it might be!

Date:

Astronomy

Sep. 18, 2012 Rise Set
Actual Time 7:03 AM CDT 7:19 PM CDT
Civil Twilight 6:38 AM CDT 7:44 PM CDT
Nautical Twilight 6:08 AM CDT 8:13 PM CDT
Astronomical Twilight 5:39 AM CDT 8:43 PM CDT
Moon 9:52 AM CDT (9/18) 8:55 PM CDT (9/18)
Length of Visible Light 13h 06m
Length of Day
12h 15m
Waxing Crescent, 9% of the Moon is Illuminated
Sep 18
Waxing Crescent
Sep 22
First Quarter
Sep 29
Full
Oct 8
Last Quarter
Oct 15
New

Hourly Weather History & Observations

Time (CDT) Temp. Dew Point Humidity Pressure Visibility Wind Dir Wind Speed Gust Speed Precip Events Conditions
12:01 AM 64.4 °F 62.6 °F 94% 29.85 in 1.0 mi Calm Calm - N/A   Mist
12:08 AM 64.4 °F 64.4 °F 100% 29.85 in 0.5 mi Calm Calm - N/A Fog Fog
12:42 AM 64.4 °F 62.6 °F 94% 29.85 in 0.2 mi Calm Calm - N/A Fog Fog
12:49 AM 64.4 °F 62.6 °F 94% 29.85 in 1.2 mi Calm Calm - N/A   Overcast
12:53 AM 64.0 °F 63.0 °F 96% 29.83 in 4.0 mi Calm Calm - N/A   Mostly Cloudy
1:02 AM 62.6 °F 62.6 °F 100% 29.85 in 1.8 mi NW 3.5 mph - N/A   Mostly Cloudy
1:19 AM 64.4 °F 64.4 °F 100% 29.84 in 0.5 mi Calm Calm - N/A Fog Fog
1:38 AM 64.4 °F 62.6 °F 94% 29.85 in 0.2 mi Calm Calm - N/A Fog Fog
1:53 AM 64.0 °F 63.0 °F 96% 29.84 in 0.2 mi Calm Calm - N/A Fog Fog
2:24 AM 62.6 °F 62.6 °F 100% 29.86 in 0.8 mi Calm Calm - N/A   Mist
2:31 AM 64.4 °F 62.6 °F 94% 29.87 in 2.5 mi Calm Calm - N/A   Mostly Cloudy
2:38 AM 62.6 °F 62.6 °F 100% 29.87 in 5.0 mi Calm Calm - N/A   Mostly Cloudy
2:46 AM 62.6 °F 62.6 °F 100% 29.87 in 1.8 mi Calm Calm - N/A   Partly Cloudy
2:53 AM 63.0 °F 62.1 °F 97% 29.86 in 0.5 mi Calm Calm - N/A Fog Fog
3:17 AM 64.4 °F 62.6 °F 94% 29.88 in 1.8 mi Calm Calm - N/A   Overcast
3:25 AM 64.4 °F 62.6 °F 94% 29.88 in 3.0 mi Calm Calm - N/A   Overcast
3:53 AM 63.0 °F 62.1 °F 97% 29.87 in 9.0 mi Calm Calm - N/A   Partly Cloudy
4:14 AM 62.6 °F 62.6 °F 100% 29.87 in 1.5 mi Calm Calm - N/A   Clear
4:23 AM 62.6 °F 62.6 °F 100% 29.87 in 0.5 mi Calm Calm - N/A Fog Fog
4:31 AM 62.6 °F 60.8 °F 94% 29.87 in 0.5 mi Calm Calm - N/A Fog Fog
4:48 AM 62.6 °F 62.6 °F 100% 29.87 in 2.0 mi Calm Calm - N/A   Scattered Clouds
4:50 AM 62.6 °F 62.6 °F 100% 29.87 in 5.0 mi Calm Calm - N/A   Mostly Cloudy
4:53 AM 62.1 °F 61.0 °F 96% 29.87 in 3.0 mi Calm Calm - N/A   Mostly Cloudy
4:55 AM 62.6 °F 60.8 °F 94% 29.88 in 1.8 mi Calm Calm - N/A   Mostly Cloudy
5:05 AM 62.6 °F 60.8 °F 94% 29.88 in 0.8 mi Calm Calm - N/A   Mist
5:09 AM 62.6 °F 60.8 °F 94% 29.88 in 1.2 mi Calm Calm - N/A   Scattered Clouds
5:16 AM 62.6 °F 60.8 °F 94% 29.89 in 1.2 mi Calm Calm - N/A   Mostly Cloudy
5:25 AM 62.6 °F 60.8 °F 94% 29.89 in 0.5 mi Calm Calm - N/A Fog Fog
5:32 AM 60.8 °F 60.8 °F 100% 29.89 in 0.2 mi Calm Calm - N/A Fog Fog
5:45 AM 60.8 °F 60.8 °F 100% 29.89 in 1.0 mi Calm Calm - N/A   Mist
5:53 AM 60.1 °F 60.1 °F 100% 29.88 in 0.5 mi Calm Calm - N/A Fog Fog
6:31 AM 62.6 °F 60.8 °F 94% 29.90 in 2.0 mi Calm Calm - N/A   Overcast
6:41 AM 62.6 °F 60.8 °F 94% 29.90 in 5.0 mi Calm Calm - N/A   Mostly Cloudy
6:53 AM 62.1 °F 61.0 °F 96% 29.89 in 6.0 mi Calm Calm - N/A   Scattered Clouds
7:53 AM 63.0 °F 63.0 °F 100% 29.91 in 6.0 mi Calm Calm - N/A   Mostly Cloudy
8:53 AM 68.0 °F 64.9 °F 90% 29.95 in 7.0 mi Calm Calm - N/A   Overcast
9:12 AM 68.0 °F 64.4 °F 88% 29.98 in 8.0 mi NNE 4.6 mph - N/A   Overcast
9:37 AM 68.0 °F 62.6 °F 83% 29.99 in 10.0 mi North 4.6 mph - N/A   Overcast
9:53 AM 69.1 °F 63.0 °F 81% 29.98 in 10.0 mi NNE 6.9 mph - N/A   Mostly Cloudy
10:31 AM 69.8 °F 60.8 °F 73% 30.00 in 10.0 mi NNE 9.2 mph 19.6 mph N/A   Mostly Cloudy
10:53 AM 72.0 °F 61.0 °F 68% 30.00 in 10.0 mi North 8.1 mph - N/A   Overcast
12:53 PM 73.9 °F 55.9 °F 53% 30.03 in 10.0 mi North - - N/A   Unknown
1:53 PM 78.1 °F 50.0 °F 37% 30.02 in 10.0 mi North - - N/A   Unknown
2:53 PM 79.0 °F 46.9 °F 32% 30.02 in 10.0 mi North - - N/A   Clear
3:53 PM 79.0 °F 44.1 °F 29% 30.01 in 10.0 mi North - - N/A   Clear
4:53 PM 78.1 °F 41.0 °F 27% 30.01 in 10.0 mi North - - N/A   Clear
5:53 PM 77.0 °F 39.9 °F 26% 30.01 in 10.0 mi North - - N/A   Clear
6:53 PM 73.0 °F 43.0 °F 34% 30.01 in 10.0 mi North - - N/A   Clear
7:53 PM 62.1 °F 52.0 °F 70% 30.02 in 10.0 mi North - - N/A   Clear
8:53 PM 57.0 °F 53.1 °F 87% 30.05 in 10.0 mi North - - N/A   Clear
9:53 PM 55.9 °F 52.0 °F 87% 30.07 in 10.0 mi North - - N/A   Clear
10:53 PM 54.0 °F 51.1 °F 90% 30.08 in 10.0 mi North - - N/A   Clear
11:53 PM 52.0 °F 51.1 °F 97% 30.09 in 9.0 mi North - - N/A   Clear